OBJECT F, 63296

Orbit data source: Space-Track

You're viewing an Uncataloged Satellite

Recently launched and/or uncataloged satellites may have evolving metadata. Metadata may include but not limited to: Owner, Maufacturer, Bus, Motor, and Mission.

OBJECT F, 63296 is a satellite owned by Yunyao yuhang (CN) in SSO that was launched on Mon, 17 Mar 2025 UTC via a GUSHENXING 1 launch vehicle from the Jiuquan Satellite Launch Center, China (JSC). Unknown objects in Earth's orbit typically refer to objects detected orbiting the Earth but have not yet been identified or cataloged. These objects could be anything from previously untracked satellites, spent rocket stages, debris from satellite collisions, or even natural meteoroids temporarily captured by Earth's gravity.

Loading next visibility...
Identifier
63296, 2025-055F
Orbit
SSO
Last TLE update
8 hours ago
Origin
Flag of CNYYAO (CN / PRC)
Manufacturer
Changguang WJ
Mission
Operational Commercial Meteo Radio Occ.
Bus & Motor
YY-1, Unknown motor
Mass
~50 kg wet, ~50 kg dry
Launch date (UTC)
2025-03-17 (4 months ago)
Launch vehicle
GUSHENXING 1
Launch site
Jiuquan Satellite Launch Center, China (JSC)
Object type
Unknown
Shape & HBR
Box + 1 Pan, 5 m
Radar Cross Section
5.339 m², Medium (>0.1 m² and < 1m²)

Expand to show TLE details & history

TLE from 8 hours ago
0 OBJECT F
1 63296U 25055F   25184.20890950  .00004908  00000-0  31473-3 0  9998
2 63296  97.6141 318.8332 0012748 240.8843 119.1110 15.08912109 16248
Epoch: 2025-07-03T05:00Z
TLE epoch observation values (Epoch: 2025-07-03T05:00:49.78Z)
Latitude
-0.00002°
Longitude
-37.85316°
Altitude
546.892 km
Speed
7.586 km/s
True Right ascension
21h 15m 19s
True Declination
0° 00' 00"
Sunlit
Object was in full shadow at epoch
Visualization orbit readout
Latitude
75.8942°
Longitude
-69.45205°
Altitude
560.819 km
Speed
7.583 km/s
Apparent Right ascension
14h 22m 31s
Apparent Declination
27° 03' 33"
Sunlit
Object is in daylight
Visualization observer readout
Local Sidereal Time
01:05:48
Azimuth
341.777° N
Elevation
-20.684°
Doppler factor
1
Orbital elements
Apogee altitude
545.327 km
Perigee altitude
527.698 km
Semi-major axis
6,914.65 km
Eccentricity
0.00127
Inclination
97.6141°
RAAN
318.8332°
Arg. of periapsis
240.8843°
True anomaly
Unknown
Mean anomaly
119.111°
Eccentric anomaly
Unknown
Mean motion
3.77475 °/min
Orbital period
95.37 mins
BSTAR
0.00031473
Loading maneuver chart data...
Loading SW <> Apogee altitude chart data...
Loading historical data...
Loading historical data...
Loading historical data...
Loading historical data...
Loading historical data...
Loading historical data...
Loading historical data...

OBJECT F Visibility forecast

Observer location: undefined°, undefined°

Span
Click to sort rows by Start time (UTC) header in descending order
Start Az.
Max El. time (UTC)
Max El. Az.
Max El.
End time (UTC)
End Az.
6 mins2025-07-03 21:30:00.162Z28.652° NE2025-07-03 21:33:00.162Z96.202° ESE35.436°2025-07-03 21:36:00.162Z169.012° S
4 mins2025-07-04 08:14:00.162Z103.426° ESE2025-07-04 08:16:00.162Z59.962° ENE21.024°2025-07-04 08:18:00.162Z24.098° NE
5 mins2025-07-04 09:48:00.162Z222.722° SW2025-07-04 09:50:00.162Z264.068° W22.178°2025-07-04 09:53:00.162Z317.636° NNW
|